Location: *
(58.4167°N, 22.5000°E)
Time: 12:04:46
(UTC+00:00)

Cosmos 1455 Rocket - Pass Details

Date: 22 September 2019
Orbit: 605 x 629 km, 82.5° (Epoch: 15 October)

Event Time Altitude Azimuth Distance (km) Brightness Sun altitude
Rises 18:07:07 0° 181° (S) 2,904 6.3 -13.1°
Reaches altitude 10° 18:09:21 10° 178° (S) 2,004 5.4 -13.4°
Maximum altitude 18:13:44 63° 98° (E) 707 3.1 -13.9°
Drops below altitude 10° 18:18:11 10° 18° (NNE) 2,025 5.8 -14.5°
Sets 18:20:26 0° 15° (NNE) 2,938 6.7 -14.7°
